DW6169 Weather Reports


Display with metric or nautical units.
time (UTC)temp
F
wind
direction
speed
MPH
gust
MPH
rain 1hr
in
rain 24hr
in
rain mn
in
humidity
%
barometer
mb
20260507213059 90 0 1.0 9.0 0.00 0.00 0.00 52 1014.0
20260507212557 90 296 1.0 6.0 0.00 0.00 0.00 51 1014.1
20260507212059 91 0 1.0 6.0 0.00 0.00 0.00 51 1014.1
20260507211604 91 269 0.0 6.0 0.00 0.00 0.00 51 1014.1
20260507211057 91 0 1.0 6.0 0.00 0.00 0.00 49 1014.2
20260507210601 91 234 1.0 6.0 0.00 0.00 0.00 52 1014.2
20260507210111 91 325 2.0 6.0 0.00 0.00 0.00 52 1014.2
20260507205558 91 220 1.0 7.0 0.00 0.00 0.00 52 1014.1
20260507205059 91 0 1.0 9.0 0.00 0.00 0.00 49 1014.1
20260507204601 90 92 3.0 9.0 0.00 0.00 0.00 52 1014.2
20260507204104 91 286 2.0 9.0 0.00 0.00 0.00 48 1014.3
20260507203601 91 223 2.0 9.0 0.00 0.00 0.00 50 1014.2
20260507203129 91 133 1.0 10.0 0.00 0.00 0.00 51 1014.3
20260507202559 91 165 1.0 10.0 0.00 0.00 0.00 51 1014.3
20260507202058 91 84 2.0 8.0 0.00 0.00 0.00 54 1014.3
20260507201559 91 254 1.0 10.0 0.00 0.00 0.00 53 1014.5
20260507201100 91 46 2.0 10.0 0.00 0.00 0.00 54 1014.4
20260507200604 91 158 1.0 12.0 0.00 0.00 0.00 52 1014.5
20260507195557 92 126 3.0 12.0 0.00 0.00 0.00 54 1014.6
20260507195102 92 209 1.0 7.0 0.00 0.00 0.00 53 1014.7
20260507194619 92 164 1.0 7.0 0.00 0.00 0.00 56 1014.7
20260507194100 92 144 1.0 8.0 0.00 0.00 0.00 56 1014.8
20260507193559 92 67 1.0 8.0 0.00 0.00 0.00 57 1014.8
20260507193106 92 0 3.0 8.0 0.00 0.00 0.00 54 1014.9
20260507192559 93 115 1.0 8.0 0.00 0.00 0.00 54 1014.9
20260507192058 93 127 1.0 8.0 0.00 0.00 0.00 55 1014.9
20260507191559 93 170 1.0 8.0 0.00 0.00 0.00 56 1015.0
20260507191058 92 209 2.0 8.0 0.00 0.00 0.00 55 1015.0
20260507190559 93 270 0.0 7.0 0.00 0.00 0.00 55 1015.1
20260507185559 92 0 2.0 7.0 0.00 0.00 0.00 56 1015.0
20260507185059 92 120 1.0 7.0 0.00 0.00 0.00 55 1015.2
20260507184558 92 0 1.0 8.0 0.00 0.00 0.00 56 1015.3
20260507184100 92 94 1.0 8.0 0.00 0.00 0.00 55 1015.5
20260507183558 92 0 2.0 8.0 0.00 0.00 0.00 56 1015.5
20260507183100 92 186 2.0 11.0 0.00 0.00 0.00 55 1015.6
20260507182559 91 170 4.0 11.0 0.00 0.00 0.00 55 1015.7
20260507182100 92 111 2.0 10.0 0.00 0.00 0.00 54 1015.7
20260507181558 92 0 2.0 11.0 0.00 0.00 0.00 55 1015.8
20260507181101 93 119 2.0 11.0 0.00 0.00 0.00 54 1015.8
20260507180600 93 103 1.0 10.0 0.00 0.00 0.00 55 1015.8
20260507180100 92 140 2.0 10.0 0.00 0.00 0.00 56 1015.9
20260507175559 93 83 2.0 9.0 0.00 0.00 0.00 54 1015.8
20260507175059 93 102 2.0 9.0 0.00 0.00 0.00 56 1015.9
20260507174603 93 143 2.0 9.0 0.00 0.00 0.00 55 1016.0
20260507174100 93 125 1.0 6.0 0.00 0.00 0.00 54 1016.0
20260507173558 92 93 0.0 10.0 0.00 0.00 0.00 54 1016.2
20260507173131 92 139 2.0 10.0 0.00 0.00 0.00 54 1016.1
20260507172600 92 149 3.0 10.0 0.00 0.00 0.00 53 1016.2
20260507172058 92 84 1.0 7.0 0.00 0.00 0.00 55 1016.2
20260507171602 92 178 2.0 7.0 0.00 0.00 0.00 57 1016.2
20260507171101 92 156 1.0 9.0 0.00 0.00 0.00 56 1016.3
20260507170603 92 113 2.0 9.0 0.00 0.00 0.00 58 1016.4
20260507170104 92 119 1.0 8.0 0.00 0.00 0.00 58 1016.5
20260507165601 91 109 1.0 7.0 0.00 0.00 0.00 58 1016.5
20260507165102 92 84 1.0 11.0 0.00 0.00 0.00 57 1016.6
20260507164600 92 136 2.0 11.0 0.00 0.00 0.00 59 1016.7
20260507164101 92 0 1.0 7.0 0.00 0.00 0.00 60 1016.8
20260507163558 92 154 1.0 7.0 0.00 0.00 0.00 59 1016.8
20260507163059 91 190 2.0 7.0 0.00 0.00 0.00 59 1016.9
20260507162601 91 189 2.0 8.0 0.00 0.00 0.00 59 1016.9
20260507162100 91 99 2.0 9.0 0.00 0.00 0.00 59 1017.0
20260507161613 91 119 2.0 9.0 0.00 0.00 0.00 60 1017.1
20260507161057 92 133 0.0 7.0 0.00 0.00 0.00 59 1017.0
20260507160559 91 79 2.0 7.0 0.00 0.00 0.00 60 1017.1
20260507160104 91 0 2.0 6.0 0.00 0.00 0.00 59 1017.1
20260507155600 90 61 1.0 9.0 0.00 0.00 0.00 60 1017.2
20260507155059 90 164 2.0 9.0 0.00 0.00 0.00 59 1017.4
20260507154559 91 129 1.0 6.0 0.00 0.00 0.00 58 1017.4
20260507154058 91 105 1.0 6.0 0.00 0.00 0.00 58 1017.4
20260507153558 90 166 0.0 6.0 0.00 0.00 0.00 60 1017.4
20260507153101 90 168 1.0 7.0 0.00 0.00 0.00 60 1017.4
20260507152600 89 118 0.0 7.0 0.00 0.00 0.00 62 1017.5
20260507152057 89 0 2.0 9.0 0.00 0.00 0.00 62 1017.5
20260507151612 89 154 1.0 9.0 0.00 0.00 0.00 62 1017.5
20260507151100 89 85 3.0 9.0 0.00 0.00 0.00 59 1017.6
20260507150601 89 107 1.0 6.0 0.00 0.00 0.00 60 1017.5
20260507150059 89 77 0.0 5.0 0.00 0.00 0.00 59 1017.6
20260507145559 89 0 0.0 4.0 0.00 0.00 0.00 61 1017.6
20260507145058 89 0 0.0 4.0 0.00 0.00 0.00 59 1017.6
20260507144618 89 0 0.0 4.0 0.00 0.00 0.00 60 1017.6
20260507144101 88 0 0.0 7.0 0.00 0.00 0.00 61 1017.5
20260507143600 88 98 1.0 7.0 0.00 0.00 0.00 61 1017.6
20260507143103 88 0 1.0 7.0 0.00 0.00 0.00 61 1017.6
20260507142557 88 0 0.0 3.0 0.00 0.00 0.00 61 1017.5
20260507142057 87 138 0.0 3.0 0.00 0.00 0.00 62 1017.5
20260507141611 87 121 0.0 0.0 0.00 0.00 0.00 64 1017.6
20260507141101 86 0 0.0 2.0 0.00 0.00 0.00 64 1017.6
20260507140601 86 0 0.0 2.0 0.00 0.00 0.00 65 1017.7
20260507140107 86 0 0.0 2.0 0.00 0.00 0.00 66 1017.6
20260507135604 85 0 0.0 2.0 0.00 0.00 0.00 67 1017.6
20260507135101 85 0 0.0 2.0 0.00 0.00 0.00 67 1017.6
20260507134600 85 0 0.0 0.0 0.00 0.00 0.00 68 1017.6
20260507134059 84 0 0.0 2.0 0.00 0.00 0.00 68 1017.6
20260507133559 84 0 0.0 2.0 0.00 0.00 0.00 69 1017.6
20260507133144 83 0 0.0 1.0 0.00 0.00 0.00 70 1017.6
20260507132558 82 0 0.0 6.0 0.00 0.00 0.00 71 1017.5
20260507132059 82 0 0.0 6.0 0.00 0.00 0.00 72 1017.6
20260507131600 81 0 1.0 6.0 0.00 0.00 0.00 73 1017.7
20260507131058 80 0 0.0 3.0 0.00 0.00 0.00 77 1017.6
20260507130559 80 0 0.0 3.0 0.00 0.00 0.00 78 1017.7
20260507130108 79 0 0.0 2.0 0.00 0.00 0.00 80 1017.6
20260507125601 78 0 0.0 3.0 0.00 0.00 0.00 82 1017.6
20260507125059 78 0 0.0 3.0 0.00 0.00 0.00 83 1017.5
20260507124608 77 0 0.0 1.0 0.00 0.00 0.00 85 1017.5
20260507124102 77 0 0.0 0.0 0.00 0.00 0.00 86 1017.4
20260507123601 76 0 0.0 2.0 0.00 0.00 0.00 87 1017.5
20260507123100 76 0 0.0 2.0 0.00 0.00 0.00 87 1017.4
20260507122559 75 0 0.0 2.0 0.00 0.00 0.00 87 1017.3
20260507122104 75 0 0.0 1.0 0.00 0.00 0.00 88 1017.3
20260507121604 75 0 0.0 1.0 0.00 0.00 0.00 88 1017.3
20260507121059 74 0 0.0 1.0 0.00 0.00 0.00 88 1017.2
20260507120558 74 0 0.0 1.0 0.00 0.00 0.00 88 1017.2
20260507120110 73 0 0.0 0.0 0.00 0.00 0.00 88 1017.0
20260507115601 73 0 0.0 0.0 0.00 0.00 0.00 88 1016.9
20260507115057 73 0 0.0 0.0 0.00 0.00 0.00 87 1016.8
20260507114617 72 0 0.0 0.0 0.00 0.00 0.00 87 1016.8
20260507114101 72 0 0.0 0.0 0.00 0.00 0.00 87 1016.8
20260507113558 71 0 0.0 0.0 0.00 0.00 0.00 86 1016.8
20260507113059 71 0 0.0 0.0 0.00 0.00 0.00 86 1016.7
20260507112559 71 0 0.0 0.0 0.00 0.00 0.00 86 1016.5
20260507112059 70 0 0.0 0.0 0.00 0.00 0.00 86 1016.5
20260507111606 70 0 0.0 0.0 0.00 0.00 0.00 85 1016.5
20260507111059 70 0 0.0 0.0 0.00 0.00 0.00 85 1016.4
20260507110559 70 0 0.0 0.0 0.00 0.00 0.00 85 1016.4
20260507105559 70 0 0.0 0.0 0.00 0.00 0.00 85 1016.2
20260507105101 70 0 0.0 0.0 0.00 0.00 0.00 85 1016.2
20260507104604 70 0 0.0 0.0 0.00 0.00 0.00 85 1016.1
20260507104059 70 0 0.0 0.0 0.00 0.00 0.00 84 1015.9
20260507103601 70 0 0.0 0.0 0.00 0.00 0.00 84 1015.9
20260507103100 70 0 0.0 0.0 0.00 0.00 0.00 84 1015.9
20260507102600 70 0 0.0 0.0 0.00 0.00 0.00 84 1015.7
20260507102058 70 0 0.0 0.0 0.00 0.00 0.00 84 1015.7
20260507101603 70 0 0.0 0.0 0.00 0.00 0.00 84 1015.6
20260507101059 70 0 0.0 0.0 0.00 0.00 0.00 83 1015.7
20260507100558 70 0 0.0 0.0 0.00 0.00 0.00 83 1015.7
20260507095559 70 0 0.0 0.0 0.00 0.00 0.00 83 1015.5
20260507095058 70 0 0.0 0.0 0.00 0.00 0.00 83 1015.4
20260507094602 70 0 0.0 0.0 0.00 0.00 0.00 83 1015.5
20260507094059 70 0 0.0 0.0 0.00 0.00 0.00 83 1015.5
20260507093600 70 0 0.0 0.0 0.00 0.00 0.00 83 1015.4
20260507093105 70 0 0.0 0.0 0.00 0.00 0.00 83 1015.5
20260507092602 71 0 0.0 1.0 0.00 0.00 0.00 82 1015.4
20260507092059 71 0 0.0 1.0 0.00 0.00 0.00 82 1015.5
20260507091602 71 0 0.0 1.0 0.00 0.00 0.00 82 1015.5
20260507091059 71 0 0.0 0.0 0.00 0.00 0.00 82 1015.5
20260507090559 71 0 0.0 0.0 0.00 0.00 0.00 81 1015.4
20260507090106 71 0 0.0 0.0 0.00 0.00 0.00 81 1015.5
20260507085559 71 0 0.0 0.0 0.00 0.00 0.00 81 1015.4
20260507085102 71 0 0.0 0.0 0.00 0.00 0.00 81 1015.4
20260507084602 71 0 0.0 0.0 0.00 0.00 0.00 81 1015.3
20260507084059 71 0 0.0 0.0 0.00 0.00 0.00 81 1015.3
20260507083557 71 0 0.0 0.0 0.00 0.00 0.00 81 1015.4
20260507083108 71 0 0.0 0.0 0.00 0.00 0.00 80 1015.3
20260507082557 72 0 0.0 0.0 0.00 0.00 0.00 80 1015.4
20260507082101 72 0 0.0 0.0 0.00 0.00 0.00 80 1015.3
20260507081601 72 0 0.0 0.0 0.00 0.00 0.00 80 1015.3
20260507081102 72 0 0.0 0.0 0.00 0.00 0.00 80 1015.3
20260507080559 72 0 0.0 0.0 0.00 0.00 0.00 79 1015.4
20260507080059 72 0 0.0 0.0 0.00 0.00 0.00 79 1015.5
20260507075559 72 0 0.0 0.0 0.00 0.00 0.00 79 1015.4
20260507075101 73 0 0.0 0.0 0.00 0.00 0.00 79 1015.4
20260507074601 73 0 0.0 0.0 0.00 0.00 0.00 79 1015.5
20260507074059 73 0 0.0 0.0 0.00 0.00 0.00 78 1015.6
20260507073559 73 0 0.0 0.0 0.00 0.00 0.00 78 1015.7
20260507073107 73 0 0.0 0.0 0.00 0.00 0.00 78 1015.7
20260507072559 73 0 0.0 0.0 0.00 0.00 0.00 78 1015.7
20260507072102 73 0 0.0 0.0 0.00 0.00 0.00 77 1015.6
20260507071600 73 0 0.0 0.0 0.00 0.00 0.00 77 1015.6
20260507071101 73 0 0.0 0.0 0.00 0.00 0.00 77 1015.7
20260507070601 74 0 0.0 0.0 0.00 0.00 0.00 77 1015.8
20260507070107 74 0 0.0 0.0 0.00 0.00 0.00 77 1015.8
20260507065603 74 0 0.0 1.0 0.00 0.00 0.00 77 1015.8
20260507065059 74 0 0.0 1.0 0.00 0.00 0.00 77 1015.8
20260507064559 74 0 0.0 1.0 0.00 0.00 0.00 76 1015.9
20260507064100 74 0 0.0 1.0 0.00 0.00 0.00 76 1016.0
20260507063600 74 0 0.0 1.0 0.00 0.00 0.00 76 1016.0
20260507063102 75 0 0.0 0.0 0.00 0.00 0.00 75 1016.1
20260507062559 75 0 0.0 0.0 0.00 0.00 0.00 75 1016.1
20260507062059 75 0 0.0 0.0 0.00 0.00 0.00 75 1016.1
20260507061601 75 0 0.0 0.0 0.00 0.00 0.00 75 1016.2
20260507061100 75 0 0.0 0.0 0.00 0.00 0.00 75 1016.2
20260507060600 75 0 0.0 0.0 0.00 0.00 0.00 75 1016.4
20260507060100 75 0 0.0 0.0 0.00 0.00 0.00 74 1016.4
20260507055601 75 0 0.0 0.0 0.00 0.00 0.00 74 1016.5
20260507055104 75 0 0.0 1.0 0.00 0.00 0.00 74 1016.5
20260507054601 75 0 0.0 1.0 0.00 0.00 0.00 74 1016.5
20260507054101 75 0 0.0 1.0 0.00 0.00 0.00 74 1016.5
20260507053601 75 0 0.0 1.0 0.00 0.00 0.00 74 1016.6
20260507053126 75 0 0.0 2.0 0.00 0.00 0.00 74 1016.6
20260507052600 75 0 0.0 2.0 0.00 0.00 0.00 74 1016.7
20260507052101 75 0 0.0 0.0 0.00 0.00 0.00 73 1016.7
20260507051601 75 0 0.0 0.0 0.00 0.00 0.00 73 1016.8
20260507051100 75 0 0.0 0.0 0.00 0.00 0.00 73 1016.9
20260507050559 75 0 0.0 0.0 0.00 0.00 0.00 73 1016.8
20260507050057 76 0 0.0 0.0 0.00 0.00 0.00 73 1016.9
20260507045600 76 0 0.0 0.0 0.00 0.00 0.00 73 1017.0
20260507045058 76 0 0.0 0.0 0.00 0.00 0.00 73 1016.9
20260507044628 76 0 0.0 0.0 0.00 0.00 0.00 73 1017.0
20260507044057 76 0 0.0 0.0 0.00 0.00 0.00 72 1016.9
20260507043600 76 0 0.0 0.0 0.00 0.00 0.00 72 1017.0
20260507043058 76 0 0.0 1.0 0.00 0.00 0.00 72 1017.1
20260507042601 76 0 0.0 1.0 0.00 0.00 0.00 72 1017.1
20260507042057 76 0 0.0 1.0 0.00 0.00 0.00 72 1017.2
20260507041559 76 0 0.0 2.0 0.00 0.00 0.00 72 1017.2
20260507041100 77 0 0.0 2.0 0.00 0.00 0.00 71 1017.3
20260507040601 77 0 0.0 4.0 0.00 0.00 0.00 71 1017.2
20260507040106 77 0 0.0 4.0 0.00 0.00 0.00 71 1017.2
20260507035559 77 100 0.0 0.0 0.00 0.00 0.00 71 1017.2
20260507035100 77 0 0.0 0.0 0.00 0.00 0.00 71 1017.2
20260507034604 77 0 0.0 0.0 0.00 0.00 0.00 71 1017.4
20260507034059 77 0 0.0 1.0 0.00 0.00 0.00 71 1017.4
20260507033559 77 0 0.0 4.0 0.00 0.00 0.00 71 1017.4
20260507033122 77 0 0.0 4.0 0.00 0.00 0.00 70 1017.4
20260507032600 77 0 0.0 4.0 0.00 0.00 0.00 70 1017.7
20260507032059 77 0 0.0 3.0 0.00 0.00 0.00 70 1017.6
20260507031603 77 0 0.0 4.0 0.00 0.00 0.00 71 1017.5
20260507031057 77 0 0.0 4.0 0.00 0.00 0.00 71 1017.4
20260507030559 77 72 0.0 1.0 0.00 0.00 0.00 71 1017.5
20260507030110 77 0 0.0 4.0 0.00 0.00 0.00 71 1017.5
20260507025558 77 0 0.0 4.0 0.00 0.00 0.00 71 1017.4
20260507025101 77 75 0.0 3.0 0.00 0.00 0.00 71 1017.4
20260507024613 77 0 0.0 3.0 0.00 0.00 0.00 71 1017.3
20260507024059 78 0 0.0 3.0 0.00 0.00 0.00 71 1017.3
20260507023601 78 0 0.0 3.0 0.00 0.00 0.00 70 1017.3
20260507023103 78 0 1.0 3.0 0.00 0.00 0.00 70 1017.2
20260507022602 78 0 0.0 0.0 0.00 0.00 0.00 70 1017.3
20260507022059 78 0 0.0 0.0 0.00 0.00 0.00 70 1017.4
20260507021600 78 0 0.0 1.0 0.00 0.00 0.00 70 1017.3
20260507021104 78 0 0.0 2.0 0.00 0.00 0.00 69 1017.4
20260507020559 78 0 0.0 2.0 0.00 0.00 0.00 69 1017.4
20260507015559 78 0 0.0 4.0 0.00 0.00 0.00 69 1017.3
20260507015102 78 0 0.0 3.0 0.00 0.00 0.00 69 1017.3
20260507014605 78 0 0.0 1.0 0.00 0.00 0.00 69 1017.2
20260507014101 79 0 0.0 2.0 0.00 0.00 0.00 69 1017.3
20260507013602 79 0 0.0 3.0 0.00 0.00 0.00 69 1017.3
20260507013104 79 84 0.0 4.0 0.00 0.00 0.00 68 1017.3
20260507012600 79 0 0.0 4.0 0.00 0.00 0.00 68 1017.3
20260507012059 79 0 1.0 4.0 0.00 0.00 0.00 68 1017.2
20260507011600 79 0 0.0 4.0 0.00 0.00 0.00 69 1017.3
20260507011100 79 0 0.0 4.0 0.00 0.00 0.00 68 1017.3
20260507010559 79 0 0.0 4.0 0.00 0.00 0.00 68 1017.3
20260507010059 79 0 0.0 4.0 0.00 0.00 0.00 68 1017.4
20260507005601 79 0 0.0 4.0 0.00 0.00 0.00 68 1017.3
20260507005058 79 81 1.0 6.0 0.00 0.00 0.00 68 1017.3
20260507004600 79 72 2.0 7.0 0.00 0.00 0.00 68 1017.3
20260507004100 80 103 2.0 7.0 0.00 0.00 0.00 68 1017.3
20260507003559 80 0 2.0 7.0 0.00 0.00 0.00 68 1017.2
20260507003106 80 53 0.0 7.0 0.00 0.00 0.00 68 1017.3
20260507002559 80 102 3.0 7.0 0.00 0.00 0.00 67 1017.1
20260507002101 80 64 1.0 6.0 0.00 0.00 0.00 67 1017.2
20260507001610 80 34 2.0 6.0 0.00 0.00 0.00 67 1017.2
20260507001102 80 113 1.0 7.0 0.00 0.00 0.00 67 1017.3
20260507000601 80 80 1.0 7.0 0.00 0.00 0.00 67 1017.2
20260507000101 80 92 1.0 7.0 0.00 0.00 0.00 66 1017.2
20260506235559 80 57 2.0 7.0 0.00 0.00 0.00 65 1017.2
20260506235100 80 94 2.0 7.0 0.00 0.00 0.00 66 1017.1
20260506234606 80 101 1.0 7.0 0.00 0.00 0.00 65 1017.1
20260506234100 81 101 1.0 8.0 0.00 0.00 0.00 65 1017.0
20260506233558 81 115 1.0 8.0 0.00 0.00 0.00 65 1017.0
20260506233059 81 91 3.0 10.0 0.00 0.00 0.00 64 1016.9
20260506232600 81 64 3.0 10.0 0.00 0.00 0.00 63 1017.0
20260506232100 81 119 2.0 8.0 0.00 0.00 0.00 64 1016.7
20260506231600 81 92 2.0 8.0 0.00 0.00 0.00 64 1016.8
20260506231059 81 128 3.0 8.0 0.00 0.00 0.00 64 1016.9
20260506230558 81 109 2.0 10.0 0.00 0.00 0.00 64 1016.8
20260506230107 82 107 1.0 10.0 0.00 0.00 0.00 64 1016.8
20260506225601 82 116 3.0 10.0 0.00 0.00 0.00 65 1016.8
20260506225059 82 67 5.0 10.0 0.00 0.00 0.00 66 1016.8
20260506224610 82 101 3.0 9.0 0.00 0.00 0.00 67 1016.8
20260506224058 82 55 2.0 10.0 0.00 0.00 0.00 69 1016.8
20260506223558 81 67 3.0 10.0 0.00 0.00 0.00 69 1016.7
20260506223107 82 129 3.0 11.0 0.00 0.00 0.00 71 1016.7
20260506222559 82 119 4.0 11.0 0.00 0.00 0.00 72 1016.7
20260506222100 82 92 3.0 10.0 0.00 0.00 0.00 72 1016.6
20260506221606 82 63 3.0 10.0 0.00 0.00 0.00 72 1016.5
20260506221058 82 69 3.0 9.0 0.00 0.00 0.00 72 1016.4
20260506220558 82 126 3.0 9.0 0.00 0.00 0.00 73 1016.4
20260506215559 82 71 3.0 9.0 0.00 0.00 0.00 73 1016.3
20260506215058 82 107 4.0 10.0 0.00 0.00 0.00 73 1016.4
20260506214559 82 51 4.0 10.0 0.00 0.00 0.00 73 1016.3
20260506214058 82 102 5.0 12.0 0.00 0.00 0.00 72 1016.4
20260506213558 82 36 5.0 12.0 0.00 0.00 0.00 72 1016.5